FW8702 Weather Reports


Display with metric or nautical units.
time (UTC)temp
F
wind
direction
speed
MPH
gust
MPH
rain 1hr
in
rain 24hr
in
rain mn
in
humidity
%
barometer
mb
20260508181549 65 231 0.0 0.0 0.00 0.00 0.00 69 1017.1
20260508180104 65 231 0.0 0.0 0.00 0.00 0.00 67 1016.8
20260508174519 67 232 0.0 0.0 0.00 0.00 0.00 65 1016.7
20260508173048 68 148 0.0 0.0 0.00 0.00 0.00 61 1016.6
20260508171509 68 148 0.0 0.0 0.00 0.00 0.00 62 1016.7
20260508170026 67 127 0.0 0.0 0.00 0.00 0.00 61 1016.7
20260508164600 67 102 0.0 0.0 0.00 0.00 0.00 62 1016.7
20260508163001 68 94 0.0 2.0 0.00 0.00 0.00 61 1016.7
20260508161604 68 246 0.0 0.0 0.00 0.00 0.00 58 1016.6
20260508160036 68 246 0.0 1.0 0.00 0.00 0.00 64 1016.6
20260508154535 67 246 0.0 1.0 0.00 0.00 0.00 63 1016.6
20260508153105 67 149 0.0 1.0 0.00 0.00 0.00 61 1016.9
20260508151524 68 165 0.0 0.0 0.00 0.00 0.00 62 1016.8
20260508150023 68 204 0.0 1.0 0.00 0.00 0.00 66 1016.9
20260508144535 67 221 0.0 5.0 0.00 0.00 0.00 68 1017.2
20260508143049 66 140 0.0 6.0 0.00 0.00 0.00 69 1017.4
20260508141514 67 216 0.0 3.0 0.00 0.00 0.00 68 1017.2
20260508140115 66 216 0.0 5.0 0.00 0.00 0.00 65 1017.2
20260508134525 65 247 0.0 10.0 0.00 0.00 0.00 65 1017.2
20260508133054 66 267 0.0 12.0 0.00 0.00 0.00 63 1017.3
20260508131517 68 214 0.0 4.0 0.00 0.00 0.00 65 1017.3
20260508130016 67 276 0.0 8.0 0.00 0.00 0.00 68 1017.4
20260508124527 68 232 0.0 2.0 0.00 0.00 0.00 64 1017.2
20260508123057 68 233 0.0 2.0 0.00 0.00 0.00 66 1017.3
20260508121518 70 244 0.0 1.0 0.00 0.00 0.00 65 1017.5
20260508120038 70 229 0.0 1.0 0.00 0.00 0.00 66 1017.4
20260508114607 69 301 0.0 2.0 0.00 0.00 0.00 67 1017.4
20260508113013 68 209 0.0 5.0 0.00 0.00 0.00 66 1017.5
20260508111533 69 217 0.0 6.0 0.00 0.00 0.00 66 1017.7
20260508110021 69 244 0.0 1.0 0.00 0.00 0.00 67 1017.7
20260508104537 68 286 0.0 3.0 0.00 0.00 0.00 68 1018.0
20260508103004 67 296 0.0 2.0 0.00 0.00 0.00 68 1018.2
20260508101517 66 231 0.0 0.0 0.00 0.00 0.00 71 1018.3
20260508100027 65 243 0.0 6.0 0.00 0.00 0.00 70 1018.3
20260508094542 65 305 0.0 1.0 0.00 0.00 0.00 71 1018.2
20260508093036 65 156 0.0 0.0 0.00 0.00 0.00 71 1018.3
20260508091557 65 231 2.0 6.0 0.00 0.00 0.00 68 1018.4
20260508090059 64 232 0.0 1.0 0.00 0.00 0.00 71 1018.3
20260508084508 64 232 0.0 4.0 0.00 0.00 0.00 70 1018.2
20260508083025 64 284 0.0 1.0 0.00 0.00 0.00 71 1018.3
20260508081542 62 308 0.0 0.0 0.00 0.00 0.00 74 1018.3
20260508080054 61 312 0.0 0.0 0.00 0.00 0.00 75 1018.3
20260508074510 62 312 0.0 1.0 0.00 0.00 0.00 74 1018.1
20260508073039 63 268 0.0 1.0 0.00 0.00 0.00 76 1017.8
20260508071556 62 31 0.0 0.0 0.00 0.00 0.00 75 1017.9
20260508070010 61 235 0.0 0.0 0.00 0.01 0.00 76 1017.9
20260508064534 60 122 0.0 0.0 0.00 0.01 0.00 80 1017.8
20260508063051 58 121 0.0 0.0 0.00 0.01 0.00 82 1017.8
20260508061519 56 121 0.0 0.0 0.00 0.01 0.00 83 1017.5
20260508060033 55 121 0.0 1.0 0.00 0.01 0.00 88 1017.4
20260508054604 54 123 0.0 0.0 0.00 0.01 0.00 89 1017.3
20260508053011 53 124 0.0 2.0 0.00 0.01 0.00 89 1017.3
20260508051529 53 125 0.0 0.0 0.00 0.01 0.00 89 1017.2
20260508050032 52 125 0.0 0.0 0.00 0.01 0.00 90 1017.1
20260508044541 52 125 0.0 0.0 0.00 0.01 0.00 91 1017.1
20260508043005 51 125 0.0 0.0 0.00 0.01 0.00 90 1017.0
20260508041514 51 125 0.0 0.0 0.00 0.01 0.00 89 1016.8
20260508040021 52 124 0.0 0.0 0.00 0.01 0.00 89 1016.9
20260508034530 51 124 0.0 0.0 0.00 0.01 0.00 89 1016.9
20260508033056 51 124 0.0 0.0 0.00 0.01 0.00 89 1016.9
20260508031527 51 79 0.0 1.0 0.00 0.01 0.00 90 1016.7
20260508030017 51 308 0.0 0.0 0.00 0.01 0.00 90 1016.3
20260508024549 50 302 0.0 0.0 0.00 0.01 0.00 91 1016.3
20260508023022 50 277 0.0 0.0 0.00 0.01 0.00 91 1016.2
20260508021525 50 277 0.0 0.0 0.00 0.01 0.00 91 1016.2
20260508020007 50 277 0.0 0.0 0.00 0.01 0.00 91 1016.3
20260508014546 50 277 0.0 0.0 0.00 0.01 0.00 91 1016.4
20260508013046 50 277 0.0 0.0 0.00 0.01 0.00 90 1016.4
20260508011503 50 276 0.0 0.0 0.00 0.01 0.00 90 1016.3
20260508010003 51 276 0.0 0.0 0.00 0.02 0.00 90 1016.3
20260508004530 51 276 0.0 0.0 0.00 0.02 0.00 90 1016.3
20260508003057 51 276 0.0 0.0 0.00 0.02 0.00 90 1016.4
20260508001508 51 276 0.0 0.0 0.00 0.02 0.00 90 1016.3
20260508000052 51 276 0.0 0.0 0.00 0.02 0.00 89 1016.4
20260507234517 51 276 0.0 0.0 0.00 0.04 0.00 89 1016.3
20260507233047 51 276 0.0 0.0 0.00 0.04 0.00 89 1016.3
20260507231512 52 276 0.0 0.0 0.00 0.04 0.00 89 1016.3
20260507230015 52 276 0.0 0.0 0.00 0.05 0.00 89 1016.4
20260507224528 52 276 0.0 0.0 0.00 0.05 0.00 89 1016.3
20260507223051 52 277 0.0 0.0 0.00 0.05 0.00 88 1016.4
20260507221508 52 161 0.0 0.0 0.00 0.05 0.00 89 1016.4
20260507220012 53 240 0.0 0.0 0.00 0.10 0.05 88 1016.2
20260507214538 53 240 0.0 0.0 0.00 0.10 0.05 88 1016.0
20260507213046 54 240 0.0 0.0 0.00 0.10 0.05 87 1015.7
20260507211511 54 240 0.0 0.0 0.00 0.10 0.05 86 1015.8
20260507210031 54 240 0.0 0.0 0.00 0.15 0.05 85 1015.9
20260507204600 55 240 0.0 0.0 0.00 0.15 0.05 86 1015.8
20260507203016 55 240 0.0 0.0 0.00 0.15 0.05 85 1015.7
20260507201531 55 240 0.0 0.0 0.00 0.15 0.05 84 1015.3
20260507200029 55 240 0.0 0.0 0.00 0.15 0.05 84 1015.1
20260507194545 56 240 0.0 0.0 0.00 0.15 0.05 83 1014.9
20260507193009 57 240 0.0 0.0 0.00 0.15 0.05 82 1014.7
20260507191522 58 240 0.0 0.0 0.00 0.15 0.05 80 1014.6
20260507190005 59 240 0.0 0.0 0.00 0.15 0.05 79 1014.5
20260507184519 61 240 0.0 0.0 0.00 0.15 0.05 77 1014.2
20260507183047 62 240 0.0 0.0 0.00 0.15 0.05 75 1014.2